[[{"header":{"parameterUnit":"m.s-1","parameterCategory":1,"la1":30.2991,"la2":30.254,"lo1":-89.0895,"lo2":-89.0444,"dx":0.0017,"dy":0.0017,"nx":28,"ny":28,"refTime":"2022-11-30T15:00:00:Z","depth":0,"parameterNumber":2,"parameterNumberName":"U-component_of_WINDS"},"data":[0,0,0,0,0,0,0,0,0,0,0,0,0,0,0,0,0,0,0,0,0,0,0,0,0,0,0,0,0,0,0,0,0,0,0,0,0,0,0,0,0,0,0,0,0,0,0,0,0,0,0,0,0,0,0,0,0,0,-4.0651,-4.0652,0,-4.0741,-4.0742,-4.0743,-4.0636,-4.0632,-4.0628,-4.0624,-4.0719,-4.0725,-4.0731,0,0,0,0,0,0,0,0,0,0,0,0,0,-4.0385,-4.0391,-4.0651,-4.0652,-4.0653,-4.0741,-4.0742,-4.0744,-4.0637,-4.0632,-4.0627,-4.0623,-4.0717,-4.0724,-4.0732,0,0,0,0,0,0,0,0,0,0,0,0,0,-4.0491,-4.0392,-4.0651,-4.061,-4.0608,-4.0741,-4.0743,-4.0744,-4.0638,-4.0632,-4.0626,-4.062,-4.0715,-4.0724,-4.0733,-4.0911,0,0,-4.0761,-4.0766,0,0,0,0,0,0,0,0,-4.0485,-4.0501,-4.0615,-4.0613,-4.061,-4.0671,-4.0683,-4.08,-4.0639,-4.0627,-4.0624,-4.0617,-4.0708,-4.0718,-4.0748,-4.0915,-4.0919,-4.0762,-4.0768,-4.0772,-4.0775,0,0,0,0,0,0,0,-4.0478,-4.0496,-4.0687,-4.0617,-4.0614,-4.0588,-4.0596,-4.0705,-4.07,-4.0627,-4.062,-4.0632,-4.0706,-4.0739,-4.0749,-4.0921,-4.0762,-4.077,-4.0776,-4.078,-4.1238,-4.1244,0,0,0,0,0,0,-4.0475,-4.0491,-4.0684,-4.0689,-4.0532,-4.0597,-4.0607,-4.0658,-4.0698,-4.0699,-4.0637,-4.0626,-4.0726,-4.0738,-4.0752,-4.0964,-4.0772,-4.0781,-4.0786,-4.1231,-4.1239,-4.1246,0,0,0,0,0,0,-4.047,-4.0493,-4.068,-4.0588,-4.061,-4.0608,-4.0667,-4.0663,-4.0696,-4.0706,-4.0704,-4.0672,-4.0722,-4.0739,-4.0872,-4.0965,-4.0785,-4.0793,-4.1223,-4.1234,-4.1243,-4.1388,0,0,0,0,0,0,-4.0462,-4.0492,-4.056,-4.059,-4.0615,-4.0799,-4.0672,-4.0669,-4.0712,-4.07,-4.0738,-4.0739,-4.0718,-4.0858,-4.0881,-4.0975,-4.0801,-4.1215,-4.1228,-4.1239,-4.1375,-4.1401,-4.1424,0,0,0,0,0,-4.0453,-4.0598,-4.0564,-4.0588,-4.07,-4.0804,-4.0819,-4.0792,-4.072,-4.0789,-4.0794,-4.0738,-4.0951,-4.0873,-4.0898,-4.0996,-4.1209,-4.1224,-4.1239,-4.1364,-4.1396,-4.1424,0,0,0,0,0,0,-4.0579,-4.0601,-4.0564,-4.0722,-4.0762,-4.0786,-4.0872,-4.0827,-4.0889,-4.0875,-4.0838,-4.0848,-4.099,-4.1005,-4.0918,-4.1169,-4.1068,-4.1089,-4.1155,-4.1186,-4.121,-4.1204,-4.0809,0,0,0,0,0,-4.0625,-4.0708,-4.0722,-4.0861,-4.0883,-4.0874,-4.0918,-4.0894,-4.0934,-4.0951,-4.0966,-4.1008,-4.1084,-4.1135,-4.1206,-4.1375,-4.1382,-4.1454,-4.1479,-4.1499,-4.1518,-4.1609,-4.1641,-4.1294,-4.1294,-4.1294,0,0,-4.0722,-4.0744,-4.0798,-4.0887,-4.0915,-4.1002,-4.0889,-4.0986,-4.105,-4.0966,-4.1092,-4.1105,-4.1149,-4.1301,-4.1368,-4.1318,-4.1615,-4.1518,-4.1534,-4.1542,-4.1628,-4.166,-4.169,-4.1304,-4.1303,-4.1301,0,0,-4.0942,-4.0967,-4.1085,-4.1115,-4.1158,-4.1151,-4.1179,-4.121,-4.1215,-4.1341,-4.1279,-4.1354,-4.1486,-4.152,-4.1555,-4.1785,-4.1736,-4.1809,-4.1939,-4.2028,-4.2055,-4.208,-4.2163,-4.2193,-4.1827,-4.1827,-4.1828,0,-4.1057,-4.1186,-4.1151,-4.1252,-4.1293,-4.1219,-4.1338,-4.1369,-4.1434,-4.1464,-4.1405,-4.1569,-4.1593,-4.1752,-4.1808,-4.1838,-4.1869,-4.1806,-4.2054,-4.2078,-4.21,-4.2179,-4.221,-4.1836,-4.1835,-4.1834,-4.1833,0,-4.1325,-4.1415,-4.1504,-4.1568,-4.1618,-4.1728,-4.1711,-4.1765,-4.1736,-4.1734,-4.1863,-4.1889,-4.1964,-4.1999,-4.1971,-4.2154,-4.2121,-4.2059,-4.1957,-4.2142,-4.2216,-4.2246,-4.1849,-4.1846,-4.1843,-4.1841,0,0,-4.1631,-4.1672,-4.1706,-4.1734,-4.1775,-4.1844,-4.1949,-4.2021,-4.2069,-4.2115,-4.2204,-4.2316,-4.2258,-4.2297,-4.2272,-4.235,-4.2532,-4.2278,-4.2279,-4.2326,-4.2736,-4.2784,-4.2819,-4.2498,-4.2503,-4.2508,-4.2732,0,-4.1853,-4.2036,-4.2007,-4.2185,-4.2267,-4.2196,-4.2288,-4.2324,-4.2325,-4.2395,-4.2395,-4.2476,-4.2393,-4.2416,-4.249,-4.2494,-4.2614,-4.2477,-4.2581,-4.2585,-4.2575,-4.2858,-4.2909,-4.312,-4.2761,-4.2766,-4.2769,0,-4.2138,-4.2194,-4.2379,-4.2406,-4.244,-4.2524,-4.2586,-4.2654,-4.2692,-4.2687,-4.273,-4.269,-4.2795,-4.2689,-4.2834,-4.2741,-4.2781,-4.279,-4.2797,-4.2808,-4.269,-4.2878,-4.3187,-4.3219,-4.2814,-4.281,-4.2807,0,-4.2344,-4.2466,-4.2592,-4.2618,-4.2652,-4.2713,-4.273,-4.2762,-4.2806,-4.2861,-4.289,-4.2956,-4.2993,-4.3045,-4.3024,-4.2948,-4.3173,-4.3065,-4.3173,-4.3174,-4.3226,-4.3224,-4.3548,-4.3248,-4.3248,-4.3247,-4.3247,0,-4.2597,-4.2714,-4.2685,-4.2764,-4.2892,-4.2857,-4.2985,-4.2993,-4.3022,-4.31,-4.3042,-4.3117,-4.3083,-4.3156,-4.3139,-4.3262,-4.3279,-4.3278,-4.3273,-4.3285,-4.3286,-4.3313,-4.3299,-4.3256,-4.3254,-4.3252,-4.3251,0,-4.2852,-4.2837,-4.297,-4.2991,-4.2999,-4.3093,-4.3111,-4.3184,-4.3179,-4.3279,-4.33,-4.3293,-4.3375,-4.3358,-4.3449,-4.3437,-4.3592,-4.3567,-4.358,-4.3575,-4.3684,-4.3675,-4.4039,-4.4086,-4.3754,-4.3757,-4.376,0,-4.3015,-4.3103,-4.3133,-4.3181,-4.3203,-4.3281,-4.3326,-4.3293,-4.3342,-4.3391,-4.3458,-4.3535,-4.3595,-4.3729,-4.3732,-4.3801,-4.3779,-4.3901,-4.3789,-4.3798,-4.3783,-4.3779,-4.3788,-4.3925,-4.3929,-4.3932,-4.3934,0,-4.3308,-4.3296,-4.3362,-4.3427,-4.3481,-4.3531,-4.3574,-4.3617,-4.3587,-4.3645,-4.3728,-4.3775,-4.3866,-4.3943,-4.4006,-4.4023,-4.3975,-4.3969,-4.3998,-4.4013,-4.4017,-4.4017,-4.3643,-4.3962,-4.3959,-4.3957,-4.3955,-4.3954,-4.3523,-4.3598,-4.363,-4.3706,-4.3735,-4.3776,-4.3846,-4.3849,-4.3917,-4.3989,-4.3965,-4.406,-4.4094,-4.4173,-4.4198,-4.4271,-4.4225,-4.4267,-4.4278,-4.4289,-4.4303,-4.4003,-4.4282,-4.4281,-4.4281,-4.428,-4.4279,0,-4.3814,-4.3831,-4.3901,-4.3963,-4.4022,-4.3969,-4.4014,-4.4067,-4.4151,-4.4187,-4.4246,-4.4341,-4.4415,-4.4422,-4.4492,-4.4549,-4.4529,-4.4569,-4.4566,-4.457,-4.434,-4.4309,-4.4584,-4.4584,-4.4584,-4.4584,-4.4584,-4.4584,-4.3973,-4.4097,-4.4088,-4.4225,-4.424,-4.4333,-4.4363,-4.4401,-4.4428,-4.4537,-4.4598,-4.4601,-4.4626,-4.4696,-4.4761,-4.4761,-4.479,-4.484,-4.4832,-4.4617,-4.4587,-4.4558,-4.4528,-4.4846,-4.4846,-4.5056,-4.5058,-4.506]},{"header":{"parameterUnit":"m.s-1","parameterCategory":1,"la1":30.2991,"la2":30.254,"lo1":-89.0895,"lo2":-89.0444,"dx":0.0017,"dy":0.0017,"nx":28,"ny":28,"refTime":"2022-11-30T15:00:00:Z","depth":0,"parameterNumber":3,"parameterNumberName":"V-component_of_WINDS"},"data":[0,0,0,0,0,0,0,0,0,0,0,0,0,0,0,0,0,0,0,0,0,0,0,0,0,0,0,0,0,0,0,0,0,0,0,0,0,0,0,0,0,0,0,0,0,0,0,0,0,0,0,0,0,0,0,0,0,0,-6.6898,-6.6899,0,-6.7001,-6.7002,-6.7003,-6.6916,-6.6912,-6.6909,-6.6905,-6.7006,-6.7011,-6.7017,0,0,0,0,0,0,0,0,0,0,0,0,0,-6.6619,-6.6625,-6.6898,-6.69,-6.6901,-6.7001,-6.7002,-6.7004,-6.6917,-6.6912,-6.6908,-6.6904,-6.7004,-6.7011,-6.7018,0,0,0,0,0,0,0,0,0,0,0,0,0,-6.6733,-6.6627,-6.6898,-6.687,-6.6868,-6.7001,-6.7002,-6.7004,-6.6918,-6.6912,-6.6907,-6.6902,-6.7001,-6.701,-6.7019,-6.7184,0,0,-6.7047,-6.7051,0,0,0,0,0,0,0,0,-6.6727,-6.6743,-6.6872,-6.6872,-6.687,-6.694,-6.6941,-6.7064,-6.6919,-6.6899,-6.6905,-6.6899,-6.6988,-6.6998,-6.7029,-6.7188,-6.7193,-6.7047,-6.7053,-6.7057,-6.7059,0,0,0,0,0,0,0,-6.6719,-6.6739,-6.6939,-6.6874,-6.6873,-6.6849,-6.6859,-6.6964,-6.6972,-6.69,-6.6894,-6.6907,-6.6986,-6.702,-6.703,-6.7194,-6.7047,-6.7055,-6.7061,-6.7064,-6.749,-6.7496,0,0,0,0,0,0,-6.6715,-6.6733,-6.6935,-6.6942,-6.6784,-6.6859,-6.687,-6.6923,-6.6971,-6.6973,-6.6912,-6.6903,-6.7007,-6.702,-6.7034,-6.7228,-6.7057,-6.7065,-6.707,-6.7485,-6.7492,-6.7498,0,0,0,0,0,0,-6.6709,-6.6734,-6.6931,-6.6836,-6.6859,-6.6869,-6.693,-6.6928,-6.6962,-6.698,-6.6981,-6.6946,-6.7004,-6.7021,-6.7147,-6.723,-6.7069,-6.7078,-6.7478,-6.7487,-6.7495,-6.7619,0,0,0,0,0,0,-6.6702,-6.6732,-6.6797,-6.6838,-6.6865,-6.7045,-6.6935,-6.6934,-6.6979,-6.6968,-6.7012,-6.7014,-6.7001,-6.7134,-6.7156,-6.724,-6.7085,-6.747,-6.7482,-6.7492,-6.7608,-6.7631,-6.7651,0,0,0,0,0,-6.6692,-6.6827,-6.6801,-6.6826,-6.6946,-6.705,-6.7065,-6.7049,-6.6986,-6.7049,-6.706,-6.7012,-6.7218,-6.7147,-6.7171,-6.726,-6.7465,-6.7479,-6.7491,-6.7598,-6.7626,-6.7651,0,0,0,0,0,0,-6.6795,-6.6832,-6.6803,-6.6956,-6.7001,-6.7035,-6.7115,-6.708,-6.7142,-6.713,-6.7105,-6.7115,-6.7248,-6.7266,-6.7187,-6.742,-6.7331,-6.7349,-6.7403,-6.7431,-6.7452,-6.7445,-6.7092,0,0,0,0,0,-6.6835,-6.6919,-6.6946,-6.7078,-6.7103,-6.7105,-6.715,-6.7134,-6.7178,-6.7196,-6.7217,-6.726,-6.7334,-6.7383,-6.7452,-6.7609,-6.7616,-6.7682,-6.7703,-6.7721,-6.7738,-6.782,-6.7848,-6.7542,-6.7542,-6.7541,0,0,-6.692,-6.695,-6.7005,-6.71,-6.7133,-6.7218,-6.7122,-6.7216,-6.7278,-6.721,-6.733,-6.7347,-6.7393,-6.7535,-6.7598,-6.7554,-6.7824,-6.7738,-6.7752,-6.7759,-6.7836,-6.7865,-6.7891,-6.7551,-6.7549,-6.7548,0,0,-6.7117,-6.715,-6.7262,-6.7297,-6.7348,-6.7349,-6.7376,-6.7416,-6.7424,-6.7545,-6.7494,-6.7567,-6.7695,-6.773,-6.7764,-6.7973,-6.793,-6.7995,-6.8109,-6.819,-6.8214,-6.8235,-6.8308,-6.8335,-6.8012,-6.8012,-6.8012,0,-6.7215,-6.7343,-6.7324,-6.7423,-6.7465,-6.7408,-6.752,-6.7554,-6.7624,-6.7654,-6.7604,-6.7762,-6.779,-6.7938,-6.7989,-6.8019,-6.8047,-6.7991,-6.8212,-6.8234,-6.8253,-6.8322,-6.835,-6.802,-6.8019,-6.8018,-6.8017,0,-6.746,-6.755,-6.7634,-6.7705,-6.7757,-6.7862,-6.7856,-6.791,-6.7888,-6.7894,-6.8015,-6.8046,-6.812,-6.8153,-6.8133,-6.8298,-6.8269,-6.8216,-6.8126,-6.829,-6.8355,-6.8381,-6.803,-6.8028,-6.8025,-6.8024,0,0,-6.7727,-6.7785,-6.7816,-6.7846,-6.7897,-6.7965,-6.8066,-6.8139,-6.8185,-6.8235,-6.8317,-6.8426,-6.8377,-6.8417,-6.8399,-6.847,-6.863,-6.8408,-6.8408,-6.8447,-6.8812,-6.8851,-6.8883,-6.8602,-6.8607,-6.8611,-6.8808,0,-6.7925,-6.8103,-6.8088,-6.8255,-6.8336,-6.8281,-6.8369,-6.8408,-6.8415,-6.8483,-6.8489,-6.8567,-6.8497,-6.852,-6.8588,-6.8597,-6.8703,-6.8582,-6.8677,-6.8681,-6.8667,-6.8916,-6.8959,-6.9143,-6.8833,-6.8837,-6.884,0,-6.8181,-6.8241,-6.8417,-6.8454,-6.8487,-6.8567,-6.8631,-6.8697,-6.874,-6.8739,-6.8783,-6.8752,-6.8851,-6.8759,-6.8893,-6.8811,-6.8848,-6.8859,-6.8865,-6.8873,-6.877,-6.893,-6.9201,-6.9229,-6.888,-6.8877,-6.8874,0,-6.8356,-6.848,-6.8601,-6.8629,-6.8676,-6.8732,-6.8754,-6.8791,-6.8835,-6.8891,-6.8919,-6.8985,-6.9021,-6.9071,-6.9059,-6.8993,-6.9195,-6.9102,-6.9196,-6.9197,-6.9241,-6.9239,-6.9522,-6.9267,-6.9266,-6.9266,-6.9265,0,-6.8579,-6.8689,-6.868,-6.8755,-6.8875,-6.8854,-6.8973,-6.8987,-6.902,-6.9095,-6.9051,-6.9121,-6.91,-6.9168,-6.9159,-6.927,-6.9287,-6.9288,-6.9284,-6.9292,-6.9292,-6.9316,-6.9302,-6.9273,-6.9271,-6.927,-6.9269,0,-6.8796,-6.8795,-6.8922,-6.8956,-6.8967,-6.9054,-6.9081,-6.9149,-6.9152,-6.9246,-6.9267,-6.9271,-6.9349,-6.9341,-6.9428,-6.9421,-6.956,-6.9541,-6.9546,-6.9542,-6.9635,-6.9626,-6.9943,-6.9983,-6.9703,-6.9706,-6.9708,0,-6.8938,-6.9021,-6.9063,-6.9111,-6.9137,-6.9213,-6.9258,-6.924,-6.9289,-6.9342,-6.9404,-6.9478,-6.9536,-6.9663,-6.9672,-6.9738,-6.9719,-6.9826,-6.9729,-6.9734,-6.972,-6.9715,-6.9722,-6.9845,-6.9848,-6.9851,-6.9853,0,-6.9191,-6.9185,-6.9253,-6.9321,-6.9376,-6.9427,-6.9474,-6.9515,-6.9501,-6.9557,-6.9637,-6.9682,-6.9771,-6.9845,-6.9907,-6.9926,-6.9887,-6.9883,-6.9908,-6.9917,-6.9916,-6.9917,-6.9597,-6.9876,-6.9874,-6.9872,-6.9871,-6.987,-6.9373,-6.9444,-6.9485,-6.9561,-6.9594,-6.9638,-6.9704,-6.9715,-6.9782,-6.9854,-6.9839,-6.9928,-6.9965,-7.0045,-7.007,-7.0138,-7.0099,-7.0136,-7.0145,-7.0154,-7.0165,-6.9906,-7.015,-7.0149,-7.0148,-7.0148,-7.0147,0,-6.9623,-6.9646,-6.9716,-6.9783,-6.9843,-6.9802,-6.9851,-6.9902,-6.9982,-7.0021,-7.008,-7.017,-7.0241,-7.0255,-7.0322,-7.0373,-7.0357,-7.0391,-7.0387,-7.0392,-7.0196,-7.0168,-7.0403,-7.0403,-7.0403,-7.0403,-7.0403,-7.0403,-6.9759,-6.9876,-6.9876,-7.0007,-7.0029,-7.0118,-7.0149,-7.0188,-7.0219,-7.0323,-7.0382,-7.0391,-7.0419,-7.0487,-7.0549,-7.0551,-7.0577,-7.0619,-7.0614,-7.0431,-7.0406,-7.0381,-7.0354,-7.0625,-7.0625,-7.0803,-7.0805,-7.0806]}]]